Tracking 19800 objects as of 23-Jul-2019
HD Live streaming from Space Station
objects crossing your sky now

FLOCK 3P 14

Track FLOCK 3P 14 now!
10-day predictions
FLOCK 3P 14 is classified as:


NORAD ID: 42012
Int'l Code: 2017-008BS
Perigee: 490.3 km
Apogee: 502.1 km
Inclination: 97.4 °
Period: 94.4 minutes
Semi major axis: 6867 km
RCS: Unknown
Launch date: February 15, 2017
Source: United States (US)
Launch site: SRIHARIKOTA (SRI)
aabbcc
Your satellite tracking list
Your tracking list is empty




NASA's NSSDC Master Catalog

Two Line Element Set (TLE):
1 42012U 17008BS  19203.83614918 +.00000633 +00000-0 +27753-4 0  9990
2 42012 097.4063 270.8138 0008583 055.6714 304.5336 15.25563371134977
Source of the keplerian elements: AFSPC